,,,PA_Meas_PMT16A,,PR_Meas_QMR101_102,,RH_Meas_QMH101,,SR_Meas_QMS101,,TA_Meas_QMH101,,GenWind,,GenWind,
date,time,status,PA,status,PR,status,RH,status,SR,status,TA,status,DirAvg,status,SpdAvg,
2009-06-12, 00:00:04,VALID,1010.47,VALID,0,VALID,93.1791,VALID,0.105969,VALID,24.842,VALID,16,VALID,0,
2009-06-12, 00:01:04,VALID,1010.42,VALID,0,VALID,93.1715,VALID,0.105969,VALID,24.803,VALID,16,VALID,0,
2009-06-12, 00:02:04,VALID,1010.4,VALID,0,VALID,93.1867,VALID,0.105969,VALID,24.803,VALID,16,VALID,0,
2009-06-12, 00:03:04,VALID,1010.39,VALID,0,VALID,93.202,VALID,0.105969,VALID,24.803,VALID,16,VALID,0,
2009-06-12, 00:04:04,VALID,1010.35,VALID,0,VALID,93.202,VALID,0,VALID,24.803,VALID,16,VALID,0,
2009-06-12, 00:05:04,VALID,1010.33,VALID,0,VALID,93.2096,VALID,0.105969,VALID,24.7816,VALID,16,VALID,0,
2009-06-12, 00:06:04,VALID,1010.3,VALID,0,VALID,93.2172,VALID,0.105969,VALID,24.803,VALID,16,VALID,0,
2009-06-12, 00:07:04,VALID,1010.27,VALID,0,VALID,93.2477,VALID,0.105969,VALID,24.803,VALID,16,VALID,0,
2009-06-12, 00:08:04,VALID,1010.25,VALID,0,VALID,93.2477,VALID,0.105969,VALID,24.803,VALID,16,VALID,0,
2009-06-12, 00:09:04,VALID,1010.25,VALID,0,VALID,93.263,VALID,0.105969,VALID,24.7835,VALID,16,VALID,0,
2009-06-12, 00:10:04,VALID,1010.17,VALID,0,VALID,93.2401,VALID,0,VALID,24.7835,VALID,16,VALID,0,
2009-06-12, 00:11:04,VALID,1010.16,VALID,0,VALID,93.2477,VALID,0.105969,VALID,24.803,VALID,16,VALID,0,
2009-06-12, 00:12:04,VALID,1010.17,VALID,0,VALID,93.2858,VALID,0,VALID,24.7835,VALID,16,VALID,0,
2009-06-12, 00:13:04,VALID,1010.13,VALID,0,VALID,93.263,VALID,0.105969,VALID,24.7621,VALID,16,VALID,0,
2009-06-12, 00:14:04,VALID,1010.13,VALID,0,VALID,93.2782,VALID,0.105969,VALID,24.7835,VALID,16,VALID,0,
2009-06-12, 00:15:04,VALID,1010.09,VALID,0,VALID,93.2858,VALID,0.105969,VALID,24.803,VALID,16,VALID,0,
2009-06-12, 00:16:04,VALID,1010.1,VALID,0,VALID,93.2782,VALID,0,VALID,24.842,VALID,16,VALID,0,
2009-06-12, 00:17:04,VALID,1010.15,VALID,0,VALID,93.2858,VALID,0,VALID,24.8809,VALID,16,VALID,0,
2009-06-12, 00:18:04,VALID,1010.14,VALID,0,VALID,93.3011,VALID,0.105969,VALID,24.9004,VALID,16,VALID,0,
2009-06-12, 00:19:04,VALID,1010.14,VALID,0,VALID,93.3087,VALID,0,VALID,24.9608,VALID,16,VALID,0,
2009-06-12, 00:20:04,VALID,1010.11,VALID,0,VALID,93.3087,VALID,0,VALID,24.9589,VALID,16,VALID,0,
2009-06-12, 00:21:04,VALID,1010.09,VALID,0,VALID,93.3011,VALID,0.105969,VALID,24.9784,VALID,16,VALID,0,
2009-06-12, 00:22:04,VALID,1010.1,VALID,0,VALID,93.3011,VALID,0,VALID,24.9784,VALID,16,VALID,0,
2009-06-12, 00:23:04,VALID,1010.1,VALID,0,VALID,93.3087,VALID,0,VALID,24.9589,VALID,16,VALID,0,
2009-06-12, 00:24:04,VALID,1010.11,VALID,0,VALID,93.2782,VALID,0,VALID,24.9394,VALID,16,VALID,0,
2009-06-12, 00:25:04,VALID,1010.09,VALID,0,VALID,93.263,VALID,0.105969,VALID,24.9199,VALID,16,VALID,0,
2009-06-12, 00:26:04,VALID,1010.09,VALID,0,VALID,93.2553,VALID,0,VALID,24.9199,VALID,16,VALID,0,
2009-06-12, 00:27:04,VALID,1010.14,VALID,0,VALID,93.2553,VALID,0,VALID,24.9199,VALID,16,VALID,0,
2009-06-12, 00:28:04,VALID,1010.16,VALID,0,VALID,93.2401,VALID,0,VALID,24.9199,VALID,16,VALID,0,
2009-06-12, 00:29:04,VALID,1010.17,VALID,0,VALID,93.2248,VALID,0,VALID,24.9394,VALID,16,VALID,0,
2009-06-12, 00:30:04,VALID,1010.19,VALID,0,VALID,93.2401,VALID,0,VALID,24.9199,VALID,16,VALID,0,
2009-06-12, 00:31:04,VALID,1010.18,VALID,0,VALID,93.2096,VALID,0,VALID,24.9413,VALID,16,VALID,0,
2009-06-12, 00:32:04,VALID,1010.18,VALID,0,VALID,93.2325,VALID,0,VALID,24.9199,VALID,16,VALID,0,
2009-06-12, 00:33:04,VALID,1010.16,VALID,0,VALID,93.2325,VALID,0.105969,VALID,24.9199,VALID,16,VALID,0,
2009-06-12, 00:34:04,VALID,1010.18,VALID,0,VALID,93.2477,VALID,0,VALID,24.9004,VALID,16,VALID,0,
2009-06-12, 00:35:04,VALID,1010.16,VALID,0,VALID,93.2172,VALID,0,VALID,24.9199,VALID,16,VALID,0,
2009-06-12, 00:36:04,VALID,1010.16,VALID,0,VALID,93.2553,VALID,0,VALID,24.9004,VALID,9,VALID,0,
2009-06-12, 00:37:04,VALID,1010.16,VALID,0,VALID,93.2706,VALID,0,VALID,24.9004,VALID,9,VALID,0,
2009-06-12, 00:38:04,VALID,1010.16,VALID,0,VALID,93.263,VALID,0.105969,VALID,24.9023,VALID,9,VALID,0,
2009-06-12, 00:39:04,VALID,1010.19,VALID,0,VALID,93.2706,VALID,0,VALID,24.8809,VALID,9,VALID,0,
2009-06-12, 00:40:04,VALID,1010.21,VALID,0,VALID,93.2782,VALID,0,VALID,24.8809,VALID,9,VALID,0,
2009-06-12, 00:41:04,VALID,1010.22,VALID,0,VALID,93.2706,VALID,0,VALID,24.842,VALID,9,VALID,0,
2009-06-12, 00:42:04,VALID,1010.19,VALID,0,VALID,93.2935,VALID,0,VALID,24.842,VALID,9,VALID,0,
2009-06-12, 00:43:04,VALID,1010.22,VALID,0,VALID,93.324,VALID,0,VALID,24.8225,VALID,9,VALID,0,
2009-06-12, 00:44:04,VALID,1010.19,VALID,0,VALID,93.3087,VALID,0,VALID,24.8633,VALID,9,VALID,0,
2009-06-12, 00:45:04,VALID,1010.17,VALID,0,VALID,93.3163,VALID,0,VALID,24.8225,VALID,9,VALID,0,
2009-06-12, 00:46:04,VALID,1010.17,VALID,0,VALID,93.3392,VALID,0.105969,VALID,24.8225,VALID,9,VALID,0,
2009-06-12, 00:47:04,VALID,1010.12,VALID,0,VALID,93.3163,VALID,0.105969,VALID,24.8225,VALID,9,VALID,0,
2009-06-12, 00:48:04,VALID,1010.11,VALID,0,VALID,93.3316,VALID,0,VALID,24.803,VALID,9,VALID,0,
2009-06-12, 00:49:04,VALID,1010.08,VALID,0,VALID,93.3468,VALID,0,VALID,24.7835,VALID,9,VALID,0,
2009-06-12, 00:50:04,VALID,1010.07,VALID,0,VALID,93.3468,VALID,0,VALID,24.8244,VALID,9,VALID,0,
2009-06-12, 00:51:04,VALID,1010.08,VALID,0,VALID,93.3468,VALID,0,VALID,24.8244,VALID,10,VALID,0,
2009-06-12, 00:52:04,VALID,1010.08,VALID,0,VALID,93.3773,VALID,0.105969,VALID,24.7835,VALID,22,VALID,0,
2009-06-12, 00:53:04,VALID,1010.14,VALID,0,VALID,93.3773,VALID,0,VALID,24.7835,VALID,29,VALID,0,
2009-06-12, 00:54:04,VALID,1010.17,VALID,0,VALID,93.3773,VALID,0,VALID,24.7835,VALID,32,VALID,0,
2009-06-12, 00:55:04,VALID,1010.16,VALID,0,VALID,93.3773,VALID,0.105969,VALID,24.7854,VALID,54,VALID,0.596094,
2009-06-12, 00:56:04,VALID,1010.17,VALID,0,VALID,93.3545,VALID,0,VALID,24.7464,VALID,64,VALID,0.732031,
2009-06-12, 00:57:04,VALID,1010.19,VALID,0,VALID,93.3621,VALID,0.105969,VALID,24.725,VALID,71,VALID,0.658984,
2009-06-12, 00:58:04,VALID,1010.2,VALID,0,VALID,93.3392,VALID,0,VALID,24.7055,VALID,63,VALID,0.427734,
2009-06-12, 00:59:04,VALID,1010.18,VALID,0,VALID,93.3468,VALID,0,VALID,24.686,VALID,73,VALID,0.595703,
2009-06-12, 01:00:04,VALID,1010.16,VALID,0,VALID,93.3392,VALID,0,VALID,24.6666,VALID,73,VALID,0.183594,
2009-06-12, 01:01:04,VALID,1010.1,VALID,0,VALID,93.3316,VALID,0,VALID,24.6471,VALID,17,VALID,0.178125,
2009-06-12, 01:02:04,VALID,1010.08,VALID,0,VALID,93.324,VALID,0,VALID,24.6471,VALID,4,VALID,0.219141,
2009-06-12, 01:03:04,VALID,1010.11,VALID,0,VALID,93.3163,VALID,0,VALID,24.6471,VALID,5,VALID,0,
2009-06-12, 01:04:04,VALID,1010.07,VALID,0,VALID,93.3163,VALID,0,VALID,24.6489,VALID,5,VALID,0,
2009-06-12, 01:05:04,VALID,1010.1,VALID,0,VALID,93.3316,VALID,0,VALID,24.6276,VALID,5,VALID,0,
2009-06-12, 01:06:04,VALID,1010.06,VALID,0,VALID,93.324,VALID,0,VALID,24.6276,VALID,5,VALID,0,
2009-06-12, 01:07:04,VALID,1010.08,VALID,0,VALID,93.3163,VALID,0.105969,VALID,24.6081,VALID,5,VALID,0,
2009-06-12, 01:08:04,VALID,1010.07,VALID,0,VALID,93.3087,VALID,0.105969,VALID,24.6276,VALID,5,VALID,0,
2009-06-12, 01:09:04,VALID,1010.06,VALID,0,VALID,93.3087,VALID,0.105969,VALID,24.6062,VALID,5,VALID,0,
2009-06-12, 01:10:04,VALID,1010.07,VALID,0,VALID,93.3163,VALID,0,VALID,24.6276,VALID,5,VALID,0,
2009-06-12, 01:11:04,VALID,1010.07,VALID,0,VALID,93.3163,VALID,0,VALID,24.6081,VALID,5,VALID,0,
2009-06-12, 01:12:04,VALID,1010.04,VALID,0,VALID,93.3163,VALID,0.105969,VALID,24.6081,VALID,5,VALID,0,
2009-06-12, 01:13:04,VALID,1010.01,VALID,0,VALID,93.324,VALID,0.105969,VALID,24.6081,VALID,5,VALID,0,
2009-06-12, 01:14:04,VALID,1010,VALID,0,VALID,93.3087,VALID,0.105969,VALID,24.6081,VALID,5,VALID,0,
2009-06-12, 01:15:04,VALID,1009.97,VALID,0,VALID,93.3011,VALID,0,VALID,24.6081,VALID,5,VALID,0,
2009-06-12, 01:16:04,VALID,1009.95,VALID,0,VALID,93.3163,VALID,0,VALID,24.6081,VALID,9,VALID,0.353125,
2009-06-12, 01:17:04,VALID,1009.95,VALID,0,VALID,93.3163,VALID,0.105969,VALID,24.6081,VALID,28,VALID,0.236328,
2009-06-12, 01:18:04,VALID,1009.94,VALID,0,VALID,93.3087,VALID,0.105969,VALID,24.6276,VALID,28,VALID,0.0988281,
2009-06-12, 01:19:04,VALID,1009.91,VALID,0,VALID,93.3011,VALID,0.105969,VALID,24.6276,VALID,28,VALID,0,
2009-06-12, 01:20:04,VALID,1009.91,VALID,0,VALID,93.2858,VALID,0,VALID,24.6471,VALID,28,VALID,0,
2009-06-12, 01:21:04,VALID,1009.93,VALID,0,VALID,93.2782,VALID,0,VALID,24.6276,VALID,28,VALID,0,
2009-06-12, 01:22:04,VALID,1009.93,VALID,0,VALID,93.2935,VALID,0.105969,VALID,24.6276,VALID,28,VALID,0,
2009-06-12, 01:23:04,VALID,1009.92,VALID,0,VALID,93.2858,VALID,0,VALID,24.6062,VALID,28,VALID,0,
2009-06-12, 01:24:04,VALID,1009.89,VALID,0,VALID,93.2706,VALID,0.105969,VALID,24.6276,VALID,28,VALID,0,
2009-06-12, 01:25:04,VALID,1009.89,VALID,0,VALID,93.2782,VALID,0.105969,VALID,24.6276,VALID,28,VALID,0,
2009-06-12, 01:26:04,VALID,1009.88,VALID,0,VALID,93.2553,VALID,0.105969,VALID,24.6276,VALID,28,VALID,0,
2009-06-12, 01:27:04,VALID,1009.84,VALID,0,VALID,93.2553,VALID,0,VALID,24.6276,VALID,28,VALID,0,
2009-06-12, 01:28:04,VALID,1009.81,VALID,0,VALID,93.2401,VALID,0,VALID,24.6276,VALID,28,VALID,0,
2009-06-12, 01:29:04,VALID,1009.83,VALID,0,VALID,93.2553,VALID,0,VALID,24.6081,VALID,28,VALID,0,
2009-06-12, 01:30:04,VALID,1009.81,VALID,0,VALID,93.2553,VALID,0.105969,VALID,24.5886,VALID,28,VALID,0,
2009-06-12, 01:31:04,VALID,1009.8,VALID,0,VALID,93.263,VALID,0,VALID,24.6081,VALID,28,VALID,0,
2009-06-12, 01:32:04,VALID,1009.8,VALID,0,VALID,93.263,VALID,0,VALID,24.5886,VALID,28,VALID,0,
2009-06-12, 01:33:04,VALID,1009.8,VALID,0,VALID,93.2782,VALID,0,VALID,24.6081,VALID,28,VALID,0,
2009-06-12, 01:34:04,VALID,1009.77,VALID,0,VALID,93.2858,VALID,0,VALID,24.5886,VALID,28,VALID,0,
2009-06-12, 01:35:04,VALID,1009.77,VALID,0,VALID,93.2858,VALID,0,VALID,24.6081,VALID,28,VALID,0,
2009-06-12, 01:36:04,VALID,1009.76,VALID,0,VALID,93.2858,VALID,0,VALID,24.6099,VALID,28,VALID,0,
2009-06-12, 01:37:04,VALID,1009.72,VALID,0,VALID,93.2858,VALID,0,VALID,24.6099,VALID,28,VALID,0,
2009-06-12, 01:38:04,VALID,1009.69,VALID,0,VALID,93.3087,VALID,0,VALID,24.5886,VALID,28,VALID,0,
2009-06-12, 01:39:04,VALID,1009.68,VALID,0,VALID,93.2782,VALID,0,VALID,24.5691,VALID,28,VALID,0,
2009-06-12, 01:40:04,VALID,1009.69,VALID,0,VALID,93.3087,VALID,0,VALID,24.5691,VALID,28,VALID,0,
2009-06-12, 01:41:04,VALID,1009.65,VALID,0,VALID,93.3316,VALID,0,VALID,24.5691,VALID,28,VALID,0,
2009-06-12, 01:42:04,VALID,1009.65,VALID,0,VALID,93.3392,VALID,0,VALID,24.5496,VALID,28,VALID,0,
2009-06-12, 01:43:04,VALID,1009.63,VALID,0,VALID,93.3468,VALID,0,VALID,24.5496,VALID,28,VALID,0,
2009-06-12, 01:44:04,VALID,1009.66,VALID,0,VALID,93.3392,VALID,0,VALID,24.5496,VALID,28,VALID,0,
2009-06-12, 01:45:04,VALID,1009.61,VALID,0,VALID,93.3545,VALID,0,VALID,24.5515,VALID,28,VALID,0,
2009-06-12, 01:46:04,VALID,1009.6,VALID,0,VALID,93.3545,VALID,0,VALID,24.5515,VALID,28,VALID,0,
2009-06-12, 01:47:04,VALID,1009.63,VALID,0,VALID,93.3545,VALID,0,VALID,24.5496,VALID,28,VALID,0,
2009-06-12, 01:48:04,VALID,1009.6,VALID,0,VALID,93.3773,VALID,0,VALID,24.5301,VALID,28,VALID,0,
2009-06-12, 01:49:04,VALID,1009.62,VALID,0,VALID,93.4002,VALID,0,VALID,24.5301,VALID,28,VALID,0,
2009-06-12, 01:50:04,VALID,1009.61,VALID,0,VALID,93.4079,VALID,0,VALID,24.5301,VALID,28,VALID,0,
2009-06-12, 01:51:04,VALID,1009.57,VALID,0,VALID,93.4079,VALID,0,VALID,24.5301,VALID,28,VALID,0,
2009-06-12, 01:52:04,VALID,1009.58,VALID,0,VALID,93.4155,VALID,0,VALID,24.5301,VALID,28,VALID,0,
2009-06-12, 01:53:04,VALID,1009.53,VALID,0,VALID,93.4384,VALID,0,VALID,24.5106,VALID,28,VALID,0,
2009-06-12, 01:54:04,VALID,1009.53,VALID,0,VALID,93.446,VALID,0.105969,VALID,24.4893,VALID,28,VALID,0,
2009-06-12, 01:55:04,VALID,1009.54,VALID,0,VALID,93.446,VALID,0,VALID,24.4911,VALID,59,VALID,0.390625,
2009-06-12, 01:56:04,VALID,1009.53,VALID,0,VALID,93.4536,VALID,0,VALID,24.5106,VALID,60,VALID,0.542969,
2009-06-12, 01:57:04,VALID,1009.52,VALID,0,VALID,93.4612,VALID,0,VALID,24.532,VALID,67,VALID,0.391406,
2009-06-12, 01:58:04,VALID,1009.54,VALID,0,VALID,93.4689,VALID,0,VALID,24.5106,VALID,67,VALID,0.257422,
2009-06-12, 01:59:04,VALID,1009.54,VALID,0,VALID,93.4765,VALID,0,VALID,24.5301,VALID,67,VALID,0,
2009-06-12, 02:00:04,VALID,1009.56,VALID,0,VALID,93.4917,VALID,0,VALID,24.5106,VALID,67,VALID,0,
2009-06-12, 02:01:04,VALID,1009.58,VALID,0,VALID,93.4917,VALID,0,VALID,24.5301,VALID,67,VALID,0,
2009-06-12, 02:02:04,VALID,1009.59,VALID,0,VALID,93.4765,VALID,0,VALID,24.5106,VALID,67,VALID,0,
2009-06-12, 02:03:04,VALID,1009.57,VALID,0,VALID,93.4841,VALID,0,VALID,24.5106,VALID,67,VALID,0,
2009-06-12, 02:04:04,VALID,1009.56,VALID,0,VALID,93.4917,VALID,0,VALID,24.5106,VALID,67,VALID,0,
2009-06-12, 02:05:04,VALID,1009.57,VALID,0,VALID,93.4917,VALID,0,VALID,24.5106,VALID,67,VALID,0.229297,
2009-06-12, 02:06:04,VALID,1009.54,VALID,0,VALID,93.4917,VALID,0,VALID,24.4698,VALID,67,VALID,0.633203,
2009-06-12, 02:07:04,VALID,1009.53,VALID,0,VALID,93.4994,VALID,0.105969,VALID,24.4911,VALID,67,VALID,0.566406,
2009-06-12, 02:08:04,VALID,1009.53,VALID,0,VALID,93.4994,VALID,0.105969,VALID,24.5106,VALID,67,VALID,0.384766,
2009-06-12, 02:09:04,VALID,1009.52,VALID,0,VALID,93.4917,VALID,0,VALID,24.5106,VALID,67,VALID,0.352734,
2009-06-12, 02:10:04,VALID,1009.49,VALID,0,VALID,93.5146,VALID,0,VALID,24.5301,VALID,67,VALID,0.333594,
2009-06-12, 02:11:04,VALID,1009.52,VALID,0,VALID,93.4994,VALID,0,VALID,24.5106,VALID,35,VALID,0.635938,
2009-06-12, 02:12:04,VALID,1009.51,VALID,0,VALID,93.507,VALID,0,VALID,24.5106,VALID,42,VALID,0.141016,
2009-06-12, 02:13:04,VALID,1009.52,VALID,0,VALID,93.4917,VALID,0.105969,VALID,24.5088,VALID,42,VALID,0.161328,
2009-06-12, 02:14:04,VALID,1009.5,VALID,0,VALID,93.4917,VALID,0.105969,VALID,24.5106,VALID,42,VALID,0,
2009-06-12, 02:15:04,VALID,1009.46,VALID,0,VALID,93.4765,VALID,0,VALID,24.5301,VALID,42,VALID,0,
2009-06-12, 02:16:04,VALID,1009.44,VALID,0,VALID,93.4765,VALID,0.105969,VALID,24.5515,VALID,42,VALID,0,
2009-06-12, 02:17:04,VALID,1009.43,VALID,0,VALID,93.4765,VALID,0,VALID,24.5301,VALID,42,VALID,0,
2009-06-12, 02:18:04,VALID,1009.45,VALID,0,VALID,93.4765,VALID,0,VALID,24.5106,VALID,42,VALID,0,
2009-06-12, 02:19:05,VALID,1009.45,VALID,0,VALID,93.4612,VALID,0.105969,VALID,24.5301,VALID,42,VALID,0,
2009-06-12, 02:20:05,VALID,1009.48,VALID,0,VALID,93.446,VALID,0.105969,VALID,24.5106,VALID,42,VALID,0,
2009-06-12, 02:21:05,VALID,1009.46,VALID,0,VALID,93.4765,VALID,0,VALID,24.532,VALID,51,VALID,0,
2009-06-12, 02:22:05,VALID,1009.48,VALID,0,VALID,93.4612,VALID,0,VALID,24.5106,VALID,51,VALID,0,
2009-06-12, 02:23:05,VALID,1009.47,VALID,0,VALID,93.4765,VALID,0.105969,VALID,24.5106,VALID,51,VALID,0,
2009-06-12, 02:24:05,VALID,1009.48,VALID,0,VALID,93.446,VALID,0,VALID,24.5106,VALID,56,VALID,0,
2009-06-12, 02:25:05,VALID,1009.48,VALID,0,VALID,93.4689,VALID,0,VALID,24.5106,VALID,62,VALID,0,
2009-06-12, 02:26:05,VALID,1009.46,VALID,0,VALID,93.4689,VALID,0,VALID,24.5301,VALID,62,VALID,0,
2009-06-12, 02:27:05,VALID,1009.46,VALID,0,VALID,93.4841,VALID,0,VALID,24.5301,VALID,62,VALID,0,
2009-06-12, 02:28:05,VALID,1009.47,VALID,0,VALID,93.4536,VALID,0,VALID,24.5301,VALID,62,VALID,0,
2009-06-12, 02:29:05,VALID,1009.46,VALID,0,VALID,93.4612,VALID,0,VALID,24.5301,VALID,62,VALID,0,
2009-06-12, 02:30:05,VALID,1009.46,VALID,0,VALID,93.4536,VALID,0,VALID,24.5106,VALID,62,VALID,0,
2009-06-12, 02:31:05,VALID,1009.49,VALID,0,VALID,93.4689,VALID,0,VALID,24.5301,VALID,62,VALID,0,
2009-06-12, 02:32:05,VALID,1009.46,VALID,0,VALID,93.4765,VALID,0,VALID,24.5515,VALID,62,VALID,0,
2009-06-12, 02:33:05,VALID,1009.45,VALID,0,VALID,93.4689,VALID,0,VALID,24.5496,VALID,62,VALID,0,
2009-06-12, 02:34:05,VALID,1009.46,VALID,0,VALID,93.4689,VALID,0,VALID,24.5301,VALID,57,VALID,0,
2009-06-12, 02:35:05,VALID,1009.44,VALID,0,VALID,93.4917,VALID,0,VALID,24.5496,VALID,38,VALID,0,
2009-06-12, 02:36:05,VALID,1009.46,VALID,0,VALID,93.4689,VALID,0.105969,VALID,24.5496,VALID,38,VALID,0,
2009-06-12, 02:37:05,VALID,1009.44,VALID,0,VALID,93.4765,VALID,0.105969,VALID,24.5496,VALID,38,VALID,0,
2009-06-12, 02:38:05,VALID,1009.47,VALID,0,VALID,93.4841,VALID,0,VALID,24.5496,VALID,38,VALID,0,
2009-06-12, 02:39:05,VALID,1009.5,VALID,0,VALID,93.4841,VALID,0,VALID,24.5496,VALID,38,VALID,0,
2009-06-12, 02:40:05,VALID,1009.53,VALID,0,VALID,93.4841,VALID,0.105969,VALID,24.5496,VALID,10,VALID,0,
2009-06-12, 02:41:05,VALID,1009.56,VALID,0,VALID,93.4765,VALID,0,VALID,24.5886,VALID,9,VALID,0,
2009-06-12, 02:42:05,VALID,1009.55,VALID,0,VALID,93.4841,VALID,0,VALID,24.6081,VALID,9,VALID,0,
2009-06-12, 02:43:05,VALID,1009.6,VALID,0,VALID,93.4994,VALID,0.105969,VALID,24.6081,VALID,120,VALID,0,
2009-06-12, 02:44:05,VALID,1009.58,VALID,0,VALID,93.5146,VALID,0,VALID,24.6276,VALID,118,VALID,0,
2009-06-12, 02:45:05,VALID,1009.59,VALID,0,VALID,93.4994,VALID,0,VALID,24.6276,VALID,93,VALID,0,
2009-06-12, 02:46:05,VALID,1009.67,VALID,0,VALID,93.5146,VALID,0,VALID,24.6471,VALID,130,VALID,0.805078,
2009-06-12, 02:47:05,VALID,1009.67,VALID,0,VALID,93.4841,VALID,0,VALID,24.686,VALID,129,VALID,0.910937,
2009-06-12, 02:48:05,VALID,1009.69,VALID,0,VALID,93.4612,VALID,0.105969,VALID,24.686,VALID,133,VALID,0.786719,
2009-06-12, 02:49:05,VALID,1009.73,VALID,0,VALID,93.4536,VALID,0.105969,VALID,24.7055,VALID,133,VALID,0.579297,
2009-06-12, 02:50:05,VALID,1009.74,VALID,0,VALID,93.4155,VALID,0.105969,VALID,24.7445,VALID,133,VALID,0.00546875,
2009-06-12, 02:51:05,VALID,1009.75,VALID,0,VALID,93.3926,VALID,0.105969,VALID,24.7445,VALID,133,VALID,0.222656,
2009-06-12, 02:52:05,VALID,1009.8,VALID,0,VALID,93.3773,VALID,0.105969,VALID,24.7835,VALID,128,VALID,0.806641,
2009-06-12, 02:53:05,VALID,1009.82,VALID,0,VALID,93.3468,VALID,0.105969,VALID,24.8225,VALID,162,VALID,1.11055,
2009-06-12, 02:54:05,VALID,1009.83,VALID,0,VALID,93.2858,VALID,0.105969,VALID,24.8225,VALID,176,VALID,1.31914,
2009-06-12, 02:55:05,VALID,1009.85,VALID,0,VALID,93.2401,VALID,0.105969,VALID,24.803,VALID,161,VALID,1.3168,
2009-06-12, 02:56:05,VALID,1009.87,VALID,0,VALID,93.2096,VALID,0,VALID,24.803,VALID,171,VALID,1.12812,
2009-06-12, 02:57:05,VALID,1009.85,VALID,0,VALID,93.1715,VALID,0.105969,VALID,24.803,VALID,166,VALID,0.872266,
2009-06-12, 02:58:05,VALID,1009.83,VALID,0,VALID,93.1486,VALID,0.105969,VALID,24.7835,VALID,175,VALID,0.805469,
2009-06-12, 02:59:05,VALID,1009.82,VALID,0,VALID,93.1181,VALID,0.105969,VALID,24.7835,VALID,165,VALID,0.532422,
2009-06-12, 03:00:05,VALID,1009.8,VALID,0,VALID,93.1181,VALID,0,VALID,24.7835,VALID,168,VALID,0.341406,
2009-06-12, 03:01:05,VALID,1009.81,VALID,0,VALID,93.0876,VALID,0.105969,VALID,24.8225,VALID,153,VALID,0.127734,
2009-06-12, 03:02:05,VALID,1009.81,VALID,0,VALID,93.0647,VALID,0.105969,VALID,24.7816,VALID,153,VALID,0.430469,
2009-06-12, 03:03:05,VALID,1009.86,VALID,0,VALID,93.0266,VALID,0.105969,VALID,24.803,VALID,164,VALID,0.923828,
2009-06-12, 03:04:05,VALID,1009.85,VALID,0,VALID,93.0266,VALID,0.105969,VALID,24.803,VALID,168,VALID,0.837891,
2009-06-12, 03:05:05,VALID,1009.89,VALID,0,VALID,93.0189,VALID,0,VALID,24.8225,VALID,166,VALID,0.901563,
2009-06-12, 03:06:05,VALID,1009.9,VALID,0,VALID,92.9808,VALID,0,VALID,24.8225,VALID,143,VALID,1.01563,
2009-06-12, 03:07:05,VALID,1009.89,VALID,0,VALID,92.9732,VALID,0.105969,VALID,24.8225,VALID,160,VALID,0.864453,
2009-06-12, 03:08:05,VALID,1009.91,VALID,0,VALID,92.9732,VALID,0.105969,VALID,24.8615,VALID,140,VALID,1.31055,
2009-06-12, 03:09:05,VALID,1009.92,VALID,0,VALID,92.9427,VALID,0.105969,VALID,24.8615,VALID,134,VALID,0.851953,
2009-06-12, 03:10:05,VALID,1009.95,VALID,0,VALID,92.9274,VALID,0,VALID,24.8615,VALID,147,VALID,0.773828,
2009-06-12, 03:11:05,VALID,1009.91,VALID,0,VALID,92.8741,VALID,0.105969,VALID,24.8809,VALID,117,VALID,0.577734,
2009-06-12, 03:12:05,VALID,1009.91,VALID,0,VALID,92.8741,VALID,0.105969,VALID,24.8615,VALID,107,VALID,0.917578,
2009-06-12, 03:13:05,VALID,1009.9,VALID,0,VALID,92.8283,VALID,0.105969,VALID,24.8809,VALID,116,VALID,1.00391,
2009-06-12, 03:14:05,VALID,1009.92,VALID,0,VALID,92.8054,VALID,0.105969,VALID,24.9199,VALID,109,VALID,0.740625,
2009-06-12, 03:15:05,VALID,1009.9,VALID,0,VALID,92.7673,VALID,0.105969,VALID,24.9199,VALID,133,VALID,1.02617,
2009-06-12, 03:16:05,VALID,1009.91,VALID,0,VALID,92.7368,VALID,0,VALID,24.9004,VALID,135,VALID,0.896094,
2009-06-12, 03:17:05,VALID,1009.9,VALID,0,VALID,92.6758,VALID,0,VALID,24.9218,VALID,136,VALID,0.507031,
2009-06-12, 03:18:05,VALID,1009.88,VALID,0,VALID,92.63,VALID,0,VALID,24.9413,VALID,137,VALID,0.386719,
2009-06-12, 03:19:05,VALID,1009.89,VALID,0,VALID,92.63,VALID,0,VALID,24.9004,VALID,138,VALID,0.291016,
2009-06-12, 03:20:05,VALID,1009.87,VALID,0,VALID,92.6148,VALID,0,VALID,24.9004,VALID,122,VALID,0.285156,
2009-06-12, 03:21:05,VALID,1009.88,VALID,0,VALID,92.5995,VALID,0,VALID,24.9218,VALID,124,VALID,0.35625,
2009-06-12, 03:22:05,VALID,1009.87,VALID,0,VALID,92.5766,VALID,0,VALID,24.9218,VALID,124,VALID,0.111328,
2009-06-12, 03:23:05,VALID,1009.91,VALID,0,VALID,92.5614,VALID,0,VALID,24.9413,VALID,122,VALID,0.282031,
2009-06-12, 03:24:05,VALID,1009.91,VALID,0,VALID,92.5461,VALID,0,VALID,24.9413,VALID,95,VALID,0.273828,
2009-06-12, 03:25:05,VALID,1009.96,VALID,0,VALID,92.5461,VALID,0,VALID,24.9218,VALID,28,VALID,0.210938,
2009-06-12, 03:26:05,VALID,1009.99,VALID,0,VALID,92.5538,VALID,0,VALID,24.9218,VALID,28,VALID,0.241797,
2009-06-12, 03:27:05,VALID,1010.01,VALID,0,VALID,92.5538,VALID,0,VALID,24.9023,VALID,28,VALID,0.200781,
2009-06-12, 03:28:05,VALID,1010.01,VALID,0,VALID,92.5766,VALID,0,VALID,24.8828,VALID,28,VALID,0.421875,
2009-06-12, 03:29:05,VALID,1010,VALID,0,VALID,92.6071,VALID,0,VALID,24.8633,VALID,28,VALID,0.466406,
2009-06-12, 03:30:05,VALID,1010,VALID,0,VALID,92.6376,VALID,0,VALID,24.8438,VALID,38,VALID,0.421875,
2009-06-12, 03:31:05,VALID,1010.01,VALID,0,VALID,92.6834,VALID,0.105969,VALID,24.842,VALID,58,VALID,0.573047,
2009-06-12, 03:32:05,VALID,1010.01,VALID,0,VALID,92.7368,VALID,0.105969,VALID,24.8011,VALID,69,VALID,0.357031,
2009-06-12, 03:33:05,VALID,1010.02,VALID,0,VALID,92.7444,VALID,0.105969,VALID,24.8225,VALID,69,VALID,0.284375,
2009-06-12, 03:34:05,VALID,1010.06,VALID,0,VALID,92.7749,VALID,0.105969,VALID,24.803,VALID,69,VALID,0.371094,
2009-06-12, 03:35:05,VALID,1010.07,VALID,0,VALID,92.813,VALID,0,VALID,24.7835,VALID,63,VALID,0.365234,
2009-06-12, 03:36:05,VALID,1010.07,VALID,0,VALID,92.8359,VALID,0,VALID,24.764,VALID,63,VALID,0.50625,
2009-06-12, 03:37:05,VALID,1010.07,VALID,0,VALID,92.8664,VALID,0,VALID,24.764,VALID,63,VALID,0.472266,
2009-06-12, 03:38:05,VALID,1010.08,VALID,0,VALID,92.9122,VALID,0.105969,VALID,24.764,VALID,63,VALID,0.183984,
2009-06-12, 03:39:05,VALID,1010.09,VALID,0,VALID,92.9351,VALID,0.105969,VALID,24.7445,VALID,63,VALID,0.408984,
2009-06-12, 03:40:05,VALID,1010.09,VALID,0,VALID,92.9579,VALID,0.105969,VALID,24.7445,VALID,63,VALID,0.207031,
2009-06-12, 03:41:05,VALID,1010.08,VALID,0,VALID,92.9961,VALID,0.105969,VALID,24.725,VALID,63,VALID,0.121484,
2009-06-12, 03:42:05,VALID,1010.1,VALID,0,VALID,92.9884,VALID,0,VALID,24.725,VALID,63,VALID,0,
2009-06-12, 03:43:05,VALID,1010.1,VALID,0,VALID,93.0113,VALID,0,VALID,24.725,VALID,63,VALID,0,
2009-06-12, 03:44:05,VALID,1010.09,VALID,0,VALID,93.0571,VALID,0.105969,VALID,24.725,VALID,63,VALID,0,
2009-06-12, 03:45:05,VALID,1010.08,VALID,0,VALID,93.0647,VALID,0.105969,VALID,24.7055,VALID,63,VALID,0.161328,
2009-06-12, 03:46:05,VALID,1010.1,VALID,0,VALID,93.0952,VALID,0.105969,VALID,24.725,VALID,63,VALID,0.102734,
2009-06-12, 03:47:05,VALID,1010.06,VALID,0,VALID,93.0952,VALID,0,VALID,24.7055,VALID,63,VALID,0.43125,
2009-06-12, 03:48:05,VALID,1010.06,VALID,0,VALID,93.1105,VALID,0,VALID,24.7055,VALID,63,VALID,0.138672,
2009-06-12, 03:49:05,VALID,1010.06,VALID,0,VALID,93.1333,VALID,0,VALID,24.686,VALID,63,VALID,0.0535156,
2009-06-12, 03:50:05,VALID,1010.04,VALID,0,VALID,93.1486,VALID,0,VALID,24.686,VALID,64,VALID,0.455078,